Theta_e
347 347 347 348 349 349 348 347 346 345 344 345 346 345 345 344 345 345 342 340 341 342 343 343 341 340 340 341 343 342 342 341 338 338 342 346 346 346 344 344 343 343 345 348 349 347 343 344 346 346 347 348 348 346 342 338 338 339 341 342 342 339 337 335 334 334 335 337 340 343 344 343 341 339 336 331 328 328 328 329 331 331 332 331 331
350 349 350 351 350 349 348 347 346 345 344 344 346 347 347 347 346 346 344 343 344 343 343 343 341 340 339 340 341 341 341 340 338 337 341 345 346 345 345 345 345 344 344 346 348 347 344 343 344 346 347 348 349 349 348 344 341 339 338 339 340 339 337 333 332 333 334 335 336 339 342 344 344 342 339 334 330 329 328 328 328 329 329 329 329
351 351 353 353 352 350 348 347 346 345 343 342 346 348 347 347 346 346 345 344 344 343 343 341 339 339 339 340 341 341 341 341 341 340 342 344 344 344 344 345 345 346 345 345 346 348 346 345 344 345 347 349 350 350 349 349 346 343 340 337 336 338 337 333 330 330 331 332 333 335 337 340 341 341 340 337 333 332 330 329 328 328 329 330 331
351 352 354 354 353 351 349 348 346 345 343 342 345 348 348 346 345 344 344 344 343 343 341 339 338 339 339 339 340 340 340 341 341 341 342 342 342 341 341 343 344 345 346 346 347 349 349 348 347 348 348 349 351 352 351 350 349 348 345 342 337 334 335 334 331 330 330 330 331 332 333 335 337 338 339 338 335 334 334 332 330 330 331 332 335
352 353 354 355 354 352 350 348 347 345 343 342 344 346 346 345 344 343 343 343 342 341 338 338 338 338 337 337 336 337 337 338 338 338 338 338 338 338 339 340 342 344 345 346 349 349 348 348 346 346 349 349 349 350 350 350 350 349 348 347 343 337 333 332 332 333 332 330 329 329 330 331 333 334 336 337 335 335 336 334 333 333 333 335 337
353 353 354 354 353 351 350 348 347 345 344 343 344 344 345 344 343 344 343 342 341 339 338 338 338 336 336 336 336 336 336 336 336 335 335 335 335 336 337 339 341 343 344 346 349 347 347 350 348 346 348 346 345 346 347 350 351 350 348 348 347 344 339 335 334 334 334 333 332 331 330 330 329 329 331 333 334 334 335 335 335 335 336 337 338
353 353 354 353 353 351 349 348 347 346 345 344 344 344 345 345 344 344 343 341 340 339 340 340 339 337 337 337 337 338 337 337 338 337 337 335 334 334 335 337 338 340 342 344 346 346 347 350 350 348 346 342 342 343 345 348 350 350 349 348 348 347 346 343 341 339 337 336 335 334 332 331 330 329 329 329 331 332 334 334 335 336 338 339 339
352 352 353 352 351 351 350 348 347 347 347 346 345 345 345 345 344 344 342 342 342 342 342 341 340 339 338 337 336 336 336 336 337 338 338 337 337 336 336 337 337 337 338 339 343 345 345 345 346 346 345 343 342 343 344 346 348 348 348 348 348 347 348 348 346 345 343 339 337 335 334 332 331 331 331 330 330 331 332 333 334 336 337 339 339
353 352 351 352 352 351 350 348 348 347 347 346 345 345 344 345 344 343 342 343 344 344 344 343 342 338 336 335 334 334 333 335 336 337 338 338 337 336 337 339 339 339 338 336 339 343 343 341 341 341 342 342 343 345 346 348 349 348 347 348 348 348 348 348 348 348 347 345 342 338 336 336 334 334 335 335 334 333 332 331 332 333 335 337 338
354 352 351 353 351 349 349 349 348 347 346 346 346 345 344 344 345 344 344 344 346 345 345 344 341 337 334 334 334 334 334 335 336 336 337 336 335 337 339 341 342 342 341 340 339 342 344 343 341 341 341 343 344 346 348 348 349 348 348 349 349 349 348 348 348 348 349 348 346 343 340 339 337 337 338 338 338 337 335 334 332 331 331 333 335
354 354 352 352 348 347 348 349 348 346 345 346 346 345 345 345 345 345 345 345 346 346 345 345 341 337 335 334 334 334 335 337 336 336 336 336 337 338 340 340 342 344 344 345 344 345 346 347 346 345 345 345 346 346 346 346 346 348 349 351 351 351 350 349 349 349 349 349 349 347 345 342 340 339 339 339 339 339 337 337 336 334 332 331 331
355 353 349 348 347 348 349 348 347 346 345 346 345 345 345 345 345 344 344 344 344 344 345 345 341 337 335 334 334 335 336 337 336 336 336 336 337 337 338 338 340 343 345 346 347 348 348 349 348 348 347 347 348 348 348 348 347 348 349 351 351 351 350 350 350 349 348 349 350 349 348 346 343 341 340 339 339 339 338 337 337 337 336 334 332
353 349 346 347 348 348 347 345 345 344 343 344 343 343 343 344 344 343 342 343 342 342 344 345 342 340 338 335 333 334 337 337 335 336 336 335 335 334 334 335 336 338 339 341 342 344 345 345 346 347 347 347 347 348 348 349 350 349 350 350 350 350 350 350 349 348 348 348 349 349 349 349 348 345 343 341 340 339 339 338 338 337 336 335 333
350 347 347 347 347 346 343 342 341 339 340 342 341 340 340 342 343 341 340 342 342 342 343 343 342 344 341 339 336 334 337 335 333 335 335 333 331 329 326 326 330 331 331 333 334 335 336 337 339 341 342 342 344 346 347 348 349 349 349 350 350 350 350 350 349 349 349 348 348 348 349 350 349 348 347 344 343 341 340 340 338 338 336 335 334
349 347 347 346 343 342 341 340 338 337 340 341 339 338 340 341 341 339 339 341 342 342 343 342 343 344 341 342 341 339 340 336 332 333 334 331 327 324 322 322 325 326 327 328 329 329 330 330 331 332 333 335 338 340 343 345 346 346 347 348 349 350 351 351 350 349 349 347 346 347 349 349 348 348 349 348 347 345 343 342 341 339 338 336 336
350 348 346 343 342 342 341 340 339 340 342 341 339 339 340 340 340 340 341 341 341 343 343 341 342 343 341 341 339 339 343 339 336 335 333 332 327 323 322 322 322 322 323 324 324 326 327 327 328 328 329 330 331 334 337 340 342 343 344 344 346 348 349 350 350 350 348 347 346 345 347 348 347 346 347 349 349 348 347 345 344 343 341 339 338
349 345 342 340 340 340 339 340 341 342 341 340 341 342 342 343 343 343 343 342 342 343 343 340 339 340 341 342 340 341 342 338 339 338 332 331 329 325 323 321 321 320 319 319 320 323 324 325 327 327 328 328 329 330 331 333 335 336 338 340 342 344 345 346 347 348 346 345 345 345 346 347 347 347 347 348 348 349 349 348 347 345 344 343 341
346 342 340 339 338 338 338 339 340 340 340 341 343 344 344 345 344 342 341 342 341 341 343 340 338 338 340 341 341 342 341 338 339 339 334 332 329 326 324 322 320 319 318 318 318 320 322 324 325 325 326 326 326 327 328 329 330 331 333 334 337 340 341 342 343 343 344 344 344 344 344 345 346 347 348 348 348 348 348 349 349 347 346 345 344
343 341 340 338 337 338 338 338 338 339 340 342 344 344 344 343 342 340 338 339 339 338 340 341 339 339 340 340 339 339 340 340 339 337 336 334 329 325 325 324 321 319 318 318 318 320 321 322 323 323 323 323 324 324 325 326 326 328 329 330 331 334 336 338 339 340 341 342 343 344 344 344 344 345 346 347 348 348 348 349 349 349 349 348 346
341 340 338 337 337 338 339 339 339 340 340 342 343 343 342 341 340 339 336 336 337 337 339 341 341 341 341 342 340 337 337 339 338 337 336 335 333 329 327 324 322 320 319 317 317 319 319 320 321 320 320 320 320 320 320 321 322 323 324 326 327 329 331 332 334 335 336 338 341 342 343 342 343 344 345 346 347 348 348 348 348 348 349 349 348
339 338 337 338 339 339 339 338 339 339 339 340 340 339 339 339 338 335 333 333 335 336 338 340 341 341 341 341 339 337 337 336 336 335 334 335 336 333 331 329 326 322 320 319 318 317 318 318 318 317 317 317 317 318 318 318 319 319 320 321 323 325 327 329 330 332 333 335 337 338 340 341 341 342 343 344 346 347 347 348 348 347 348 349 350
338 338 337 338 339 339 338 337 337 338 337 335 334 333 333 335 335 332 331 333 335 336 337 338 340 340 339 339 337 336 338 338 335 332 332 333 334 333 331 331 331 327 322 320 319 318 317 316 316 315 315 316 316 316 317 317 317 317 317 318 319 320 322 324 326 327 330 332 333 335 337 340 341 343 343 343 344 345 346 347 348 348 347 348 349
337 337 338 338 338 338 337 335 335 335 333 330 330 332 332 332 332 330 330 332 334 336 336 336 338 338 337 336 336 334 335 336 335 331 331 332 334 335 331 329 331 329 324 322 320 319 318 316 315 315 314 314 315 315 315 315 316 317 317 317 317 317 318 319 321 322 324 327 329 331 334 336 338 341 343 343 344 344 345 346 347 347 347 348 348
338 338 338 337 337 338 337 334 332 331 330 330 331 333 333 333 331 330 331 332 332 334 335 335 336 336 334 333 334 335 334 334 333 331 331 332 334 334 331 329 331 328 324 323 321 319 319 317 316 316 315 315 315 315 314 314 314 316 317 317 317 316 316 317 319 320 321 322 325 328 330 332 334 336 339 341 342 342 342 343 345 346 346 347 348
338 337 337 336 337 338 336 334 332 331 331 332 332 333 333 333 333 332 333 333 333 333 333 334 334 334 333 332 332 333 334 334 333 332 332 332 333 332 329 330 331 329 326 324 323 321 319 318 317 317 317 318 318 317 315 314 314 315 317 318 318 317 317 316 317 318 319 320 322 324 326 329 331 333 335 337 339 339 339 339 340 343 345 347 348
336 335 335 336 337 338 336 334 332 330 331 331 331 332 332 332 333 334 334 334 335 334 334 334 334 333 333 333 332 332 333 334 334 333 332 332 332 330 329 329 329 327 327 325 323 323 321 318 318 318 319 320 320 320 319 317 316 315 317 318 318 318 317 316 316 316 317 318 319 321 323 325 327 330 332 335 337 338 338 337 337 339 342 346 348
337 335 334 335 336 337 335 333 332 331 330 330 331 331 332 332 332 333 334 334 335 335 335 334 333 333 333 333 334 334 333 333 333 333 332 332 331 329 329 330 330 327 326 325 323 322 321 320 319 319 320 321 321 321 322 321 318 316 316 318 317 317 316 316 316 316 315 316 316 318 320 322 324 327 329 332 334 336 337 336 336 337 338 342 344
337 336 334 334 335 335 334 333 333 333 331 330 331 332 332 333 333 333 334 334 334 334 334 334 333 333 333 333 334 334 333 333 333 333 332 331 331 330 328 328 330 330 329 328 326 323 322 321 320 320 321 322 322 322 323 323 320 317 316 317 317 316 315 315 315 315 315 315 315 315 317 319 321 323 326 329 331 333 336 336 336 336 336 338 340
338 337 335 334 334 334 334 332 333 333 332 331 331 332 332 333 333 333 333 334 333 333 333 333 333 333 333 333 334 333 333 333 333 333 333 332 331 330 329 325 326 330 333 333 329 324 323 321 321 321 322 322 322 323 324 324 321 318 317 317 317 315 315 315 315 316 315 315 315 315 316 317 319 321 323 326 328 330 332 334 336 336 335 335 337
338 336 335 335 334 334 332 331 331 332 332 331 332 332 332 332 332 333 333 333 332 332 332 332 332 332 332 333 333 334 333 333 334 333 333 332 331 330 329 325 322 326 330 331 329 324 322 323 322 322 323 322 322 323 324 324 322 321 319 318 316 315 315 315 316 316 316 316 316 316 316 316 317 318 320 323 326 328 330 331 333 334 335 334 334
337 336 335 334 333 333 331 330 330 331 331 331 332 331 331 332 332 333 332 332 332 332 332 331 332 332 333 333 333 334 333 333 334 334 333 333 331 330 329 326 322 323 324 327 329 327 323 324 324 323 324 323 323 323 324 324 323 321 320 318 316 315 315 316 315 316 316 317 317 317 317 317 317 318 319 320 323 326 328 330 331 332 332 332 333
337 335 334 332 332 331 330 330 330 331 331 331 331 331 331 332 332 332 332 331 331 331 331 331 331 332 333 333 334 334 335 334 334 334 334 333 332 330 330 327 323 322 323 325 328 328 324 324 324 324 324 323 323 323 323 324 323 322 320 317 315 315 316 316 315 316 316 317 317 317 317 318 318 319 319 320 321 324 327 329 330 331 331 331 331
336 334 332 332 332 332 331 332 331 332 332 332 331 330 331 332 331 330 330 329 329 330 330 330 331 332 333 334 335 334 334 334 334 335 335 334 333 330 330 327 323 322 324 324 326 327 325 324 324 324 324 323 323 324 324 324 323 322 318 315 315 316 316 316 316 316 317 317 317 318 318 318 319 319 320 320 321 323 325 328 329 331 332 332 331
335 333 332 332 333 333 333 333 333 334 333 332 331 331 331 332 331 329 328 328 329 329 329 330 330 332 334 335 335 334 333 332 332 333 334 334 334 331 330 327 324 323 324 324 325 326 325 324 324 324 324 323 323 324 324 323 323 321 317 315 315 315 315 316 317 317 317 317 318 318 318 319 319 320 320 320 320 321 323 327 329 330 332 334 333
334 332 332 333 334 334 335 334 335 334 334 332 331 331 331 330 329 329 329 329 329 329 329 330 331 332 334 335 334 333 332 331 330 331 332 333 333 332 331 328 325 325 325 324 324 324 324 325 325 324 324 324 323 323 323 323 323 320 316 314 314 315 316 316 317 318 318 318 318 318 319 319 319 320 320 320 320 320 321 324 328 330 332 334 335
334 333 334 334 335 335 335 335 335 334 333 332 331 330 329 329 329 329 329 329 329 329 329 330 331 332 333 333 332 330 330 329 328 327 329 331 332 332 331 330 328 327 326 325 324 324 324 325 325 325 324 324 323 323 323 324 322 318 315 315 315 316 317 317 317 318 318 318 319 319 319 319 320 320 320 320 320 320 320 321 325 330 332 333 335
336 335 334 334 334 335 335 335 334 333 333 332 331 330 329 329 329 329 330 329 329 329 329 329 329 329 330 330 329 329 329 328 326 325 325 327 329 331 331 331 330 329 328 327 326 324 323 324 325 325 325 324 324 324 323 324 322 318 315 315 315 317 317 317 318 318 318 319 319 319 320 320 320 320 320 320 321 321 321 320 322 327 331 334 335
338 337 335 334 333 334 334 334 334 333 333 333 331 330 329 329 329 330 330 329 329 329 329 328 327 327 328 329 329 329 328 327 326 326 326 325 326 328 330 331 331 330 329 328 327 325 324 324 324 325 325 325 324 324 324 324 323 321 319 317 317 318 318 318 318 318 318 319 319 320 320 321 321 321 320 320 321 321 322 321 321 323 327 331 335
339 338 336 335 334 333 333 334 334 334 334 333 332 330 329 330 330 331 330 330 329 329 329 328 328 328 328 328 329 329 329 328 327 327 327 327 327 327 328 329 330 330 330 329 328 326 325 324 324 325 325 325 325 324 324 324 324 322 320 319 319 319 318 319 319 319 319 319 320 320 321 321 321 321 321 321 321 322 323 322 322 321 324 328 332
339 338 336 336 334 333 334 334 335 335 334 333 331 330 330 331 331 331 331 330 329 328 329 329 329 329 328 328 328 329 330 330 329 328 328 328 329 328 328 328 329 329 330 329 328 327 325 325 325 326 326 325 325 325 325 325 324 322 318 318 319 319 319 319 319 319 319 319 320 321 321 322 322 321 321 321 322 323 323 324 324 323 323 326 329
339 338 337 336 334 333 334 335 335 334 332 331 331 331 332 332 332 333 332 331 329 328 329 329 329 328 328 328 328 328 329 330 329 329 328 328 328 329 329 329 329 330 329 329 328 328 327 326 326 326 326 326 325 325 325 325 324 322 319 318 319 320 319 320 319 319 319 319 320 321 321 322 322 322 322 322 322 323 324 326 327 326 325 326 328
339 338 338 337 335 334 335 336 336 334 332 330 331 332 333 333 334 334 334 332 330 329 329 329 329 329 328 328 328 328 329 329 328 327 327 326 327 328 329 330 330 330 330 329 329 328 327 327 327 326 326 326 326 326 326 325 324 322 320 319 320 320 320 320 320 320 319 319 320 321 321 322 322 322 322 322 322 323 324 327 329 330 330 328 328
339 339 339 338 336 335 336 337 336 334 332 331 331 331 332 333 334 334 335 334 333 330 329 329 329 329 329 328 327 328 328 327 326 326 326 327 327 328 329 329 329 329 329 329 329 328 328 327 326 325 326 326 326 325 325 324 323 323 321 319 320 320 320 321 321 321 320 319 319 320 321 321 322 322 322 322 322 322 323 325 327 330 332 333 332
339 338 340 339 334 332 336 339 337 335 333 332 331 331 331 332 333 334 334 335 335 333 331 329 330 330 329 328 327 327 326 325 326 327 327 327 327 328 328 328 327 327 327 327 328 328 327 326 326 325 326 326 326 325 324 324 323 323 321 320 320 320 320 321 321 321 320 318 319 320 321 321 321 322 323 323 323 323 323 324 324 327 330 333 334
338 338 340 339 333 331 337 339 337 336 334 332 332 331 331 332 333 333 334 334 335 335 333 330 330 329 328 327 327 326 325 325 326 328 328 328 328 328 327 326 326 326 326 326 326 326 326 326 326 326 326 326 325 325 324 324 323 323 322 321 320 320 320 320 320 320 319 319 319 320 321 321 321 322 323 323 323 324 324 324 325 328 330 333 335
338 338 339 339 338 337 339 338 336 336 335 333 332 332 332 333 333 333 334 334 335 335 333 331 329 328 327 326 327 326 326 326 326 327 327 327 328 328 327 326 326 325 326 326 326 326 325 325 325 326 326 325 325 324 324 324 323 322 322 321 320 320 320 320 319 319 319 319 319 320 321 322 322 322 323 323 323 324 324 324 325 326 329 332 335
335 334 335 336 338 338 338 338 336 336 335 334 333 332 332 332 332 333 334 335 335 334 332 331 329 327 326 326 326 327 327 326 325 324 324 325 326 327 326 326 326 326 326 327 326 325 324 324 325 325 325 325 324 324 323 323 323 322 320 320 319 319 319 319 319 319 319 318 319 320 322 322 322 322 322 323 324 325 325 325 325 324 325 329 334
329 329 331 334 335 336 337 337 336 336 336 335 334 332 332 332 333 334 335 334 334 332 331 330 328 327 327 326 327 327 326 325 323 322 324 326 327 327 327 326 326 326 326 326 325 324 324 324 324 324 323 323 323 323 323 323 322 321 319 318 318 318 319 319 320 320 319 318 318 319 321 322 321 322 322 323 324 325 325 325 326 326 327 330 335
324 326 330 333 334 335 336 336 336 337 336 335 334 333 332 334 334 335 334 333 332 331 330 329 327 326 327 327 327 325 323 322 322 323 325 326 327 326 326 325 325 325 324 324 323 323 323 322 321 321 321 321 322 322 322 322 321 320 319 318 317 318 319 319 320 320 319 319 319 319 320 321 321 322 323 324 324 325 326 326 326 326 326 329 334
325 328 331 333 333 334 335 335 335 334 332 331 331 331 331 332 332 332 332 332 332 331 330 328 326 326 327 326 325 323 322 321 323 325 326 326 325 324 324 323 323 323 323 322 322 321 320 319 319 320 320 321 321 321 321 320 320 319 319 317 317 318 319 319 319 319 319 319 319 320 321 321 322 322 323 324 325 325 325 325 326 327 326 327 332
329 331 333 333 334 334 334 333 333 331 329 328 328 328 328 328 329 330 331 331 331 329 328 326 327 327 326 325 323 321 321 322 323 325 325 324 323 323 322 322 321 321 321 320 319 318 317 318 318 319 320 320 320 320 320 320 320 319 318 317 317 318 319 319 318 319 319 320 319 320 321 322 323 323 324 325 326 327 326 326 326 327 329 330 335
Wind_Speed
13 12 12 12 11 10 10 10 10 11 11 11 11 9 9 8 8 8 9 10 13 17 18 15 13 12 11 11 9 9 10 10 11 11 9 8 8 8 9 10 11 13 14 16 16 18 21 22 22 22 21 21 21 21 20 19 19 18 18 19 19 18 18 18 18 18 18 17 17 16 16 15 14 14 14 13 12 12 12 12 12 12 11 10 9
12 11 12 12 11 11 10 11 11 11 12 11 11 10 9 8 9 11 13 14 16 18 19 16 14 12 11 11 9 9 9 9 9 9 8 8 8 7 7 8 9 11 13 16 17 18 19 22 24 24 23 22 22 22 22 22 21 20 19 20 20 20 20 19 19 19 18 18 18 17 17 16 16 15 15 14 13 12 12 13 13 12 12 11 10
13 12 12 12 11 11 11 11 12 11 12 12 11 11 11 10 12 14 16 17 19 20 20 17 14 12 10 10 9 8 8 8 8 7 7 7 8 8 8 8 9 10 12 14 17 18 19 20 23 25 24 24 23 23 23 22 22 22 21 21 21 21 22 21 20 20 20 19 19 18 18 17 17 16 16 16 15 14 14 14 13 13 13 12 11
13 12 12 12 11 11 11 12 12 12 12 13 13 13 13 13 14 16 17 18 19 19 18 15 12 11 10 9 9 9 8 8 8 8 7 7 7 8 9 9 10 10 11 13 13 16 19 19 22 25 26 25 24 24 22 22 22 23 23 23 23 23 23 22 21 21 21 21 20 20 19 19 18 17 17 17 16 15 15 15 15 14 13 13 12
13 12 12 12 12 12 12 12 12 12 12 13 14 14 14 15 16 17 17 17 17 15 13 11 10 10 9 9 9 9 9 9 10 10 9 9 9 10 11 11 12 12 12 11 10 14 18 19 21 24 27 27 25 25 24 24 23 25 25 24 25 25 24 24 23 22 21 22 22 21 21 20 20 19 19 18 18 17 16 16 16 15 15 14 13
14 13 12 12 13 12 12 12 13 13 12 13 13 14 15 15 15 17 16 14 13 11 10 10 9 9 9 9 9 9 9 10 10 10 10 10 10 11 11 12 13 13 14 11 9 14 16 15 20 23 26 29 28 26 25 26 26 27 27 26 26 26 26 26 25 24 23 22 22 22 21 21 21 21 20 20 19 18 18 17 16 16 16 15 15
14 14 13 13 13 13 12 12 12 12 11 12 12 13 14 14 14 15 14 11 10 9 9 10 10 10 10 10 10 9 9 9 9 9 10 10 10 11 11 12 12 13 14 11 8 12 13 11 15 20 24 27 28 27 26 26 28 29 28 27 27 27 28 27 27 27 25 24 23 22 22 22 21 21 21 21 21 20 19 19 18 17 17 16 16
15 15 14 14 15 14 11 11 11 10 10 10 11 11 11 12 12 12 11 9 9 9 9 9 10 10 11 10 10 9 9 10 9 9 9 9 9 9 9 10 10 11 12 12 9 9 12 13 14 16 18 20 22 25 27 28 29 29 28 28 28 28 28 27 27 28 27 26 25 24 23 23 22 22 22 22 22 22 21 20 20 19 18 18 18
17 16 15 16 16 13 10 10 9 8 8 8 9 9 9 9 9 8 8 9 8 8 10 10 10 11 10 10 9 9 9 9 8 8 8 8 9 9 9 8 7 8 9 11 9 7 9 14 16 16 17 18 18 20 24 27 28 30 30 29 28 28 28 28 27 28 27 27 27 26 25 24 23 23 22 22 22 22 22 22 22 21 20 19 19
20 17 16 17 15 11 9 9 7 6 7 7 8 8 7 7 7 6 7 9 8 8 10 10 11 12 11 10 9 9 8 7 9 10 10 10 12 12 11 10 8 6 5 6 6 4 4 10 14 16 18 18 18 19 22 23 26 30 32 30 29 28 27 27 26 27 27 28 28 28 27 26 25 24 24 24 23 23 23 23 23 23 22 21 21
22 18 15 14 11 9 8 7 6 5 5 7 7 7 6 6 7 8 8 8 8 7 9 10 11 11 11 11 9 9 6 8 11 12 11 13 13 13 13 12 11 9 7 5 4 3 2 5 10 13 15 16 16 19 21 22 24 28 30 29 29 28 27 26 25 27 27 27 28 28 28 28 27 26 26 26 25 24 24 23 23 23 23 23 22
19 16 13 10 8 7 6 6 5 5 5 5 6 6 6 6 8 9 8 8 7 6 7 9 10 10 12 10 8 7 5 8 13 12 12 13 13 12 13 12 12 12 10 9 7 6 5 5 7 9 11 11 12 15 18 20 23 26 28 29 29 28 28 26 24 25 26 27 27 28 29 30 29 28 28 28 27 27 27 26 25 24 24 24 24
16 12 10 8 6 6 5 5 5 7 7 6 6 5 5 5 7 7 7 8 7 6 6 8 8 7 11 11 8 5 5 7 13 11 11 12 11 11 12 12 12 13 12 10 8 7 6 6 7 9 11 11 11 12 13 14 17 21 24 27 28 28 27 26 24 25 25 26 27 28 30 30 29 29 30 29 29 29 29 28 28 27 26 25 25
12 8 8 7 5 5 4 6 7 10 10 8 6 5 3 4 5 6 6 7 7 7 7 6 4 4 7 8 7 5 5 8 13 10 11 11 10 11 12 13 12 12 12 11 9 8 7 7 7 9 11 11 11 11 12 11 10 11 13 17 21 24 25 25 24 24 24 26 27 27 29 31 30 30 30 30 30 31 30 30 30 29 29 28 27
8 7 8 7 6 6 6 7 9 12 12 9 6 4 4 4 6 7 6 6 6 5 4 2 2 3 3 2 3 4 2 6 10 8 9 10 10 11 13 14 13 13 13 11 11 9 7 7 7 8 9 10 11 12 13 11 10 10 10 11 13 16 19 21 22 23 24 27 28 27 28 31 32 30 30 31 31 31 32 31 31 31 31 30 30
8 9 9 7 6 7 7 9 9 11 10 9 7 6 6 6 6 6 5 6 5 4 2 1 1 2 2 0 1 1 0 4 8 5 6 8 11 13 14 15 14 14 14 13 12 11 9 8 8 8 8 9 10 11 12 10 10 11 12 11 12 13 16 17 19 21 23 26 27 27 28 30 31 30 30 30 31 32 32 32 32 32 32 32 31
10 10 8 7 7 7 8 9 9 8 9 10 9 6 5 5 5 4 4 5 4 4 2 1 1 1 1 1 0 0 1 3 5 3 4 6 9 13 14 15 14 15 16 15 14 12 10 10 9 9 9 9 9 10 10 9 9 11 11 10 10 11 13 14 16 18 20 22 24 26 27 28 29 30 31 32 33 33 33 33 34 33 33 33 33
12 11 8 7 7 8 8 8 8 8 9 10 8 6 5 4 3 2 2 2 3 4 3 1 1 2 2 1 1 1 1 1 1 2 5 5 5 10 12 14 14 15 17 17 16 14 12 12 12 12 11 11 11 11 11 10 9 10 10 10 9 10 11 12 13 15 18 19 21 22 22 23 25 27 29 31 33 34 34 34 34 34 34 34 34
13 11 9 8 7 8 8 8 8 9 9 9 8 6 5 4 4 3 1 2 3 4 4 3 2 3 3 1 1 1 1 0 1 1 4 4 6 9 10 12 13 14 17 18 17 15 14 14 14 14 14 14 14 14 14 13 12 11 10 10 10 11 11 12 13 14 17 19 21 22 21 21 23 25 27 28 31 33 35 35 35 35 35 35 35
12 10 8 8 9 9 8 8 8 8 8 7 7 6 5 5 5 4 3 4 4 4 4 4 2 3 3 2 1 0 0 1 2 1 1 2 6 7 10 13 12 12 14 16 16 14 14 14 14 15 15 15 16 17 17 16 16 15 13 12 12 12 12 13 14 15 16 18 20 21 22 22 24 26 26 27 29 31 33 35 36 36 36 36 36
11 9 9 9 10 9 9 8 8 7 7 6 6 6 6 6 5 4 3 3 4 4 3 3 2 2 2 2 2 1 1 1 1 1 1 1 2 3 8 14 12 11 12 13 14 13 12 13 13 14 16 16 17 18 19 19 19 18 17 15 14 14 14 15 16 16 17 18 19 21 22 23 24 26 27 28 29 30 31 33 34 35 36 37 37
11 10 10 11 11 10 8 7 7 7 7 6 6 6 6 6 5 3 2 1 1 2 1 1 1 2 1 2 3 2 2 2 2 1 0 1 2 4 7 8 8 11 12 12 12 12 11 12 12 13 15 16 17 18 19 20 20 20 19 18 16 15 15 16 17 18 18 19 20 21 22 22 23 24 27 28 29 30 30 31 32 33 34 36 36
13 13 12 12 11 10 8 7 7 7 7 6 5 4 5 5 4 2 1 1 1 1 1 1 2 3 2 3 3 4 4 5 6 6 4 3 2 4 7 8 7 9 12 12 11 10 9 11 13 13 15 16 17 18 19 19 19 19 20 19 20 19 18 17 17 18 19 20 21 22 23 23 23 24 25 27 28 29 30 31 32 32 33 34 35
14 14 14 13 12 11 9 7 7 7 7 6 5 5 4 4 4 3 2 1 1 0 1 2 3 3 3 3 3 5 6 6 7 7 7 6 4 3 5 8 7 8 12 12 12 10 7 9 13 13 15 17 18 19 19 20 20 20 20 20 21 22 21 19 19 19 19 20 21 22 24 24 25 26 26 26 26 27 29 30 32 33 34 34 34
16 15 15 14 13 12 10 8 8 7 7 7 7 6 5 5 5 5 5 4 3 2 2 2 4 4 5 5 5 6 7 6 7 8 8 8 6 4 4 4 4 8 12 10 10 11 8 10 14 14 15 18 19 20 20 21 21 21 22 21 22 23 23 23 22 22 22 22 22 23 24 26 26 27 27 27 27 26 27 28 30 32 34 34 34
18 16 15 14 14 13 11 9 8 7 7 7 7 6 6 6 6 7 7 6 6 5 5 5 6 7 8 9 9 9 9 8 9 10 10 9 8 7 4 3 5 7 9 8 9 8 7 11 14 14 16 19 20 21 21 22 22 22 23 23 23 23 24 25 25 25 25 24 24 24 24 26 27 28 28 29 29 29 28 27 28 30 33 34 34
18 16 15 15 14 13 12 10 9 8 7 7 7 7 7 7 8 8 8 8 8 8 8 9 9 10 11 12 12 12 12 11 12 12 13 12 11 10 7 3 3 4 5 6 9 9 9 12 14 15 17 19 20 20 22 23 22 22 23 24 25 25 25 26 27 28 28 27 27 26 26 26 27 28 29 30 30 31 30 29 28 28 30 32 34
18 17 16 15 15 14 14 13 12 10 9 8 8 8 9 9 9 9 9 9 9 10 10 11 12 12 13 14 15 16 15 14 14 15 15 14 14 13 11 7 4 2 2 3 5 7 10 12 13 14 16 19 21 21 22 23 23 23 24 25 26 26 27 28 29 30 31 31 30 28 27 27 27 28 29 30 31 32 32 32 30 28 28 30 32
18 18 17 16 15 15 15 13 13 12 11 10 10 10 10 11 11 11 10 10 10 11 12 13 13 14 14 15 16 17 17 17 17 17 17 17 16 16 15 13 8 4 1 2 3 5 8 12 13 14 17 19 20 22 23 24 24 24 24 26 27 28 29 31 31 32 32 33 33 32 30 29 28 28 28 29 31 32 33 34 34 33 31 29 30
18 17 16 16 15 15 14 14 13 13 12 12 11 11 12 12 12 12 12 11 12 12 12 13 14 14 14 15 16 18 18 18 19 20 20 19 19 18 17 16 14 10 6 3 5 8 10 13 15 18 21 22 21 21 23 25 25 25 25 27 27 29 30 32 32 33 33 33 34 34 33 31 30 29 29 29 30 31 33 34 35 36 35 33 30
17 16 16 16 16 15 15 14 14 13 13 13 12 12 13 13 13 13 12 12 13 13 13 14 14 15 15 16 16 18 19 19 20 21 21 21 21 20 19 18 18 17 15 8 4 9 13 13 18 22 23 23 23 23 24 26 26 25 26 27 28 29 30 32 33 34 34 35 35 35 35 34 32 31 30 30 30 31 32 33 34 36 37 36 34
17 16 17 16 16 15 15 15 15 15 15 14 13 13 14 14 13 13 13 13 14 15 15 15 15 16 17 18 18 18 18 19 19 20 22 23 22 22 21 22 21 20 19 14 6 12 21 20 20 24 23 22 25 26 25 27 27 26 26 27 28 29 30 32 34 35 35 36 36 36 35 35 34 32 30 30 30 31 32 32 33 34 35 36 36
17 17 17 17 16 16 16 16 16 16 15 15 14 14 14 14 13 13 13 13 15 16 16 16 17 17 18 19 18 17 17 18 18 19 21 23 24 24 24 23 23 21 19 18 13 14 24 25 20 22 23 22 24 27 27 29 28 26 25 27 28 29 30 32 34 35 36 36 37 37 36 36 36 34 33 31 31 32 32 32 33 33 34 35 36
18 18 18 18 17 17 17 17 17 16 16 15 14 14 14 14 14 13 13 14 15 16 17 18 18 18 18 18 17 16 16 17 17 17 19 22 23 25 26 25 24 23 23 24 20 14 20 26 24 23 23 22 23 26 27 28 28 26 25 27 28 29 29 31 33 35 36 37 37 38 38 37 37 36 36 34 33 33 33 33 33 33 33 34 35
20 19 19 19 18 18 18 18 17 17 16 15 14 14 14 14 14 13 13 14 15 17 18 18 18 17 17 17 17 15 15 16 16 15 17 19 22 25 27 26 25 26 27 26 21 16 20 26 27 23 21 22 25 25 26 28 27 25 26 27 28 29 30 31 33 35 36 36 38 39 40 39 39 38 37 36 35 34 33 33 33 33 33 34 35
22 22 20 19 19 19 19 18 17 17 16 16 15 14 15 14 14 14 14 15 16 18 18 18 17 17 17 17 16 15 15 15 15 15 15 17 20 22 25 26 26 28 29 27 24 23 23 24 27 25 23 24 26 25 25 27 26 24 26 28 28 29 31 31 33 36 37 37 38 40 41 41 40 39 39 38 38 36 34 34 34 33 33 34 35
25 24 22 20 20 20 19 17 16 16 16 16 16 15 15 14 14 15 15 16 17 17 18 17 16 16 16 17 17 15 16 16 15 15 15 16 18 20 22 24 25 26 28 27 27 26 24 24 28 30 27 25 26 26 25 26 26 26 27 29 29 29 31 33 34 36 38 39 39 40 42 42 41 40 40 40 39 38 36 35 34 34 33 33 34
26 25 23 21 21 20 18 16 16 18 18 18 18 17 16 16 16 16 16 17 17 17 18 18 17 17 18 18 18 17 16 17 16 16 16 16 18 20 20 22 23 24 26 27 27 26 24 24 27 30 29 27 26 26 26 25 25 27 29 30 31 29 29 32 35 36 39 41 41 40 41 42 42 41 41 41 40 40 38 36 35 35 35 33 34
26 26 24 22 21 19 18 17 18 19 20 20 19 18 17 17 17 17 18 18 18 18 19 19 19 19 19 19 19 19 18 18 19 18 18 18 18 20 21 21 21 23 24 26 25 24 23 22 23 26 29 28 26 26 26 26 25 27 29 29 28 27 28 30 34 37 39 41 42 41 40 40 41 40 40 40 40 39 38 36 34 36 37 35 34
26 25 24 22 20 19 17 17 18 19 20 20 19 19 19 18 18 19 19 19 19 20 20 21 21 20 20 20 20 20 19 20 21 20 20 19 20 21 21 21 21 22 23 24 23 22 21 19 19 23 26 26 25 25 25 25 24 24 26 26 26 27 29 30 32 35 37 38 41 42 39 37 38 39 38 38 39 37 37 36 34 34 36 37 35
26 24 22 20 18 17 17 17 18 19 20 20 20 19 19 19 19 20 20 19 20 21 22 22 21 21 21 21 20 19 19 19 20 21 21 21 21 21 22 22 23 23 22 22 22 21 18 15 16 20 20 19 20 21 20 23 25 24 26 28 28 28 30 32 33 32 32 36 39 40 38 36 36 38 37 37 38 37 35 35 34 33 35 36 36
26 22 21 19 17 16 17 18 19 20 21 22 21 20 19 19 20 21 21 22 22 22 23 23 23 23 21 21 20 19 18 19 20 21 22 21 20 20 21 22 23 24 23 22 22 21 18 15 16 19 16 15 18 20 21 25 29 27 27 27 27 28 29 29 29 29 28 32 38 40 40 36 34 36 38 37 38 37 34 33 32 33 34 34 35
22 20 20 18 16 17 19 19 20 21 23 23 21 20 20 21 22 22 23 25 25 25 26 25 25 24 22 21 21 19 19 19 20 20 20 20 19 19 20 22 22 22 23 23 23 23 20 16 16 18 16 15 19 23 26 30 31 28 26 27 26 26 25 21 21 25 28 33 37 40 41 39 35 35 38 38 37 37 36 35 34 33 34 34 34
16 17 18 18 17 20 22 22 22 23 24 23 22 22 23 23 23 24 25 27 29 30 29 27 25 23 22 22 21 20 20 20 20 20 19 19 19 19 20 21 21 21 21 21 22 22 22 19 16 16 18 18 20 25 30 32 31 28 27 27 26 25 25 21 20 26 34 39 39 37 40 43 38 34 37 38 36 36 36 37 36 34 35 36 34
16 18 19 19 21 25 25 24 24 25 24 23 22 23 24 24 24 25 26 29 31 32 31 28 24 22 21 22 21 20 19 18 19 20 19 19 19 19 21 22 23 21 20 19 19 19 22 21 17 18 22 23 23 28 33 32 30 30 28 27 27 28 29 29 29 35 41 42 38 36 39 41 35 30 35 37 35 35 35 35 35 33 34 35 34
16 19 22 22 25 27 27 26 26 26 25 23 23 24 26 27 26 26 28 30 31 31 30 26 22 20 21 21 20 19 18 17 19 19 18 19 20 21 22 23 23 22 20 18 16 15 18 20 21 24 27 27 25 29 33 33 31 32 29 27 29 31 32 34 38 43 44 41 36 32 32 35 31 28 35 37 33 34 36 36 36 34 32 33 33
16 19 23 25 25 26 27 27 26 27 26 24 24 26 27 29 29 29 30 31 30 29 26 23 21 20 21 20 18 18 17 16 18 19 18 20 21 21 22 22 22 22 19 16 15 15 16 18 20 23 25 26 26 29 33 34 35 36 35 34 34 33 33 35 37 39 39 39 36 28 26 32 31 28 35 37 30 31 34 34 35 34 32 32 32
19 22 25 25 24 25 26 27 26 27 27 26 25 25 26 29 30 30 30 29 27 24 21 20 20 20 19 17 16 16 15 15 18 19 19 19 19 18 18 19 20 21 20 18 18 18 18 18 18 21 23 26 28 30 32 34 36 38 36 33 32 31 31 32 31 31 33 36 37 30 27 32 32 29 34 35 27 27 33 32 31 31 31 30 31
23 23 21 20 21 22 23 23 23 24 23 21 19 20 23 26 27 27 27 26 24 20 18 18 20 19 16 14 14 14 14 16 17 18 17 16 14 14 16 17 20 22 23 22 21 20 21 21 22 24 26 28 29 30 31 30 32 33 30 27 29 29 27 23 20 25 31 34 37 34 28 30 35 32 31 30 27 28 31 32 31 32 32 32 30
23 17 14 15 17 18 20 20 18 15 13 11 11 15 18 20 23 26 25 22 19 16 16 18 19 17 14 12 12 13 14 16 17 16 16 14 13 14 16 17 19 21 21 20 20 22 23 24 25 25 27 27 26 27 28 27 27 28 25 24 28 28 24 21 21 28 33 34 35 31 24 28 34 31 26 24 25 28 31 32 31 31 31 31 29
14 11 11 12 13 15 16 15 10 7 8 9 10 13 16 19 24 25 22 18 16 15 16 18 18 16 13 11 11 12 14 15 16 15 16 15 14 15 16 15 15 16 17 17 19 23 25 25 25 25 25 26 25 24 25 25 25 25 24 24 26 26 25 28 31 27 22 25 33 32 24 25 28 26 22 16 12 17 25 30 31 30 29 29 27
Wind_Direction
262 268 274 279 284 288 288 286 285 285 285 291 301 308 308 306 306 308 313 319 327 334 336 333 329 333 330 326 328 327 322 314 307 302 295 283 277 276 275 272 267 262 258 259 256 249 245 244 245 246 248 247 243 239 236 235 236 236 234 233 232 232 232 231 228 225 222 221 220 220 221 222 222 225 229 231 230 231 232 232 233 234 238 241 243
264 268 272 277 284 285 283 283 282 281 280 284 293 300 303 305 308 313 315 318 321 325 328 325 322 326 325 322 326 329 333 329 320 309 296 283 277 276 275 276 276 271 263 259 258 257 254 250 249 249 249 249 247 245 241 238 235 235 237 237 236 235 236 236 234 231 227 224 224 224 224 224 225 226 230 234 235 236 237 237 237 238 241 243 245
262 265 271 277 282 285 285 285 283 281 280 281 289 293 297 305 310 315 316 315 315 318 322 321 322 328 326 323 324 329 338 338 334 326 307 288 280 280 277 276 278 278 273 265 260 261 263 260 257 257 257 255 253 252 247 244 241 236 236 238 239 238 237 238 239 237 233 229 226 226 227 228 228 229 231 235 238 239 240 240 241 241 243 245 245
259 263 269 275 281 285 285 284 285 286 283 282 286 290 296 306 311 313 312 310 311 315 319 323 331 336 334 329 324 326 329 329 330 328 317 299 286 282 280 277 274 274 273 273 270 262 259 259 257 257 258 257 259 260 256 250 247 243 238 237 239 240 238 238 239 240 238 236 232 229 229 229 230 232 233 235 238 239 240 242 243 244 244 245 246
257 261 266 273 278 282 283 283 285 285 284 282 284 290 297 304 308 309 308 309 310 315 322 330 339 341 341 336 326 325 320 315 315 313 312 304 295 285 281 277 273 271 268 275 282 267 260 257 256 257 256 255 257 259 257 252 251 248 244 240 238 239 240 240 239 240 240 240 239 236 234 234 233 234 236 237 239 239 238 240 243 246 247 247 248
254 258 263 269 274 278 283 285 288 288 287 285 285 288 293 299 305 307 309 314 318 327 336 341 345 345 346 341 335 331 323 320 318 316 315 308 301 292 286 282 276 273 267 275 284 266 265 261 257 263 261 257 254 252 252 252 252 250 247 245 241 238 240 241 241 241 241 242 243 242 240 239 239 238 239 239 241 240 239 239 241 244 247 248 250
253 258 262 267 270 274 281 288 292 293 288 284 282 284 289 296 303 308 313 320 331 344 352 351 350 349 348 347 347 344 335 335 335 331 326 317 312 304 299 293 285 282 273 280 287 264 271 271 258 263 262 261 260 256 256 254 252 251 249 248 247 244 242 241 241 241 241 242 244 245 245 244 245 244 243 242 242 242 241 240 240 242 245 247 249
253 258 262 267 267 267 276 288 289 286 283 280 281 280 285 292 301 311 314 320 336 350 358 356 351 349 347 349 351 347 343 343 341 341 338 331 331 325 318 310 297 291 279 281 292 274 276 280 275 277 275 275 274 269 266 259 255 254 251 249 249 248 246 243 243 243 242 243 245 245 247 248 249 250 249 247 245 244 244 242 241 241 243 246 248
253 257 262 264 266 268 276 285 283 280 283 283 284 282 286 296 309 318 312 314 328 341 348 350 349 348 346 347 348 348 350 352 357 4 6 6 8 4 358 350 327 307 290 282 288 285 277 277 282 290 291 292 291 288 281 272 266 261 255 251 249 249 249 247 247 246 244 245 247 246 247 248 249 250 251 251 250 249 249 247 246 244 243 244 246
252 253 257 259 265 276 282 283 282 283 287 289 292 293 301 317 322 313 303 307 316 330 337 340 344 346 345 346 349 355 2 21 32 29 30 32 29 27 26 24 18 1 332 305 295 292 278 279 286 291 294 299 300 296 289 279 271 265 260 255 251 250 251 250 248 248 248 247 247 248 248 248 249 249 250 251 251 252 252 251 250 249 248 246 246
249 249 256 263 269 278 280 277 276 281 292 300 304 303 310 321 316 308 308 306 305 319 328 330 338 341 343 346 353 4 37 65 39 33 43 41 39 41 42 40 39 39 34 28 14 6 359 300 296 295 295 297 293 288 284 278 271 266 264 261 258 256 256 255 250 247 249 250 249 249 250 250 250 250 250 251 251 251 252 252 252 252 252 251 250
246 250 257 265 267 264 265 269 275 289 299 308 317 315 307 303 302 306 314 309 302 320 327 324 331 339 344 347 359 15 74 73 35 40 56 47 46 47 45 45 46 49 47 48 47 34 24 352 324 317 315 311 299 292 284 275 269 265 262 262 261 260 260 261 258 253 252 253 252 253 252 251 251 252 251 252 253 252 253 253 252 252 252 253 254
250 254 255 253 250 248 256 275 289 296 296 302 314 313 302 297 299 300 309 312 311 328 330 322 329 343 344 342 358 36 105 62 36 55 63 49 50 47 44 44 45 47 44 43 43 32 24 15 1 357 354 346 332 321 306 283 266 260 260 261 260 260 262 263 264 261 260 258 256 256 255 252 251 252 253 253 254 254 254 254 254 254 254 254 256
252 243 237 235 234 242 264 282 290 293 294 299 304 298 283 286 292 289 299 309 309 321 320 315 325 336 334 331 353 37 104 50 38 61 64 53 56 50 44 41 43 46 41 40 37 24 14 10 3 7 8 359 348 345 341 324 296 282 279 274 268 268 268 267 267 265 264 262 260 258 257 257 255 253 253 254 255 255 255 255 255 255 256 256 256
239 216 216 219 227 243 262 271 281 287 289 295 293 274 259 257 269 278 290 304 307 325 329 311 307 320 333 327 348 11 66 24 19 43 55 54 55 47 40 39 45 48 44 43 39 29 20 14 7 6 6 358 352 357 0 348 328 330 330 309 293 285 277 273 271 268 266 263 261 257 255 259 261 258 256 255 256 257 256 256 256 256 257 257 257
219 206 208 214 230 247 262 268 272 276 279 286 283 264 251 248 256 259 267 283 295 319 356 35 338 323 354 56 46 8 37 350 346 2 41 44 41 36 35 37 42 44 41 40 36 32 28 26 27 21 12 3 357 4 10 356 335 342 346 328 313 300 288 279 273 270 270 268 265 263 259 261 263 262 260 258 258 258 257 258 257 256 257 257 257
204 201 207 224 244 254 263 264 260 261 268 277 276 262 252 256 265 256 248 260 276 292 289 31 0 289 294 241 134 43 193 339 331 323 4 20 27 25 30 35 38 38 35 35 34 34 32 29 31 28 21 14 7 7 14 7 347 342 342 334 319 304 296 289 281 278 280 279 275 271 269 268 266 264 263 262 260 258 258 258 258 258 257 257 257
199 202 210 225 240 246 249 251 254 260 266 271 267 258 257 266 274 264 256 256 265 281 276 293 301 213 194 206 234 267 241 320 328 309 334 346 9 15 25 31 33 34 31 32 33 34 37 34 30 27 21 16 14 13 13 13 3 348 338 333 323 308 298 293 291 288 289 289 282 276 276 277 274 270 269 266 261 259 259 258 257 258 258 257 257
198 198 202 216 229 231 234 242 252 257 260 265 265 260 264 270 260 237 220 231 243 266 278 297 272 194 176 177 218 261 259 212 144 308 328 323 336 356 14 23 29 30 27 29 31 34 40 39 35 32 28 22 18 17 14 11 6 357 344 333 324 312 302 295 294 291 288 288 284 280 279 282 280 277 275 270 263 260 260 259 258 258 259 258 257
193 195 202 216 222 220 224 233 239 243 249 258 261 260 263 264 254 240 237 242 246 258 277 298 274 199 180 167 142 80 338 106 116 141 197 279 321 341 351 357 15 29 27 26 26 32 38 39 40 37 33 29 24 21 19 15 10 3 355 345 334 321 309 301 298 295 291 290 288 284 281 280 279 277 276 273 267 262 260 260 259 259 258 257 257
187 198 209 211 212 214 219 227 234 239 242 247 251 250 245 241 238 235 239 242 243 251 276 304 271 208 184 154 120 89 118 126 57 15 158 226 290 315 331 340 353 9 20 25 21 26 33 36 39 34 30 28 23 22 20 19 17 12 7 358 344 329 315 304 300 298 294 291 290 287 285 283 280 277 277 276 271 266 263 262 260 258 258 257 256
191 201 207 205 206 210 215 223 230 230 231 238 242 240 232 226 226 225 227 231 225 238 282 311 232 198 170 152 143 145 168 194 238 253 202 252 282 293 310 326 331 338 357 10 11 14 21 26 26 21 19 17 15 14 13 14 14 12 10 4 357 346 331 315 306 300 296 292 288 286 286 283 280 277 278 277 273 268 267 265 262 260 259 256 255
198 201 203 201 202 206 210 217 219 218 224 229 227 225 222 216 214 214 201 152 161 212 268 270 225 204 193 185 181 182 195 214 219 217 215 217 248 292 303 314 304 306 331 348 355 1 7 13 13 10 9 8 6 4 2 2 5 5 3 2 0 356 347 333 320 310 303 296 290 287 286 283 280 277 275 276 274 271 269 265 263 263 260 257 256
199 200 201 200 202 204 205 210 213 213 216 214 210 213 213 209 211 218 218 201 179 236 281 268 235 222 223 224 218 213 220 226 220 218 222 224 225 241 284 308 307 299 315 328 338 343 350 2 5 7 8 6 3 358 354 353 356 359 356 355 357 355 352 346 336 325 317 308 297 290 286 284 282 279 276 274 273 273 272 268 265 264 262 259 257
199 201 202 202 204 204 206 211 211 211 213 212 214 216 216 219 223 227 233 236 233 243 269 261 248 249 252 251 250 245 245 244 233 232 234 227 226 235 259 270 270 294 308 313 323 330 333 346 356 359 0 2 360 356 351 348 350 355 354 350 350 350 349 349 344 337 330 322 311 300 291 285 282 281 280 277 275 274 274 272 268 264 261 260 257
202 205 206 206 205 207 212 214 207 207 213 218 224 226 228 234 239 246 253 257 255 254 258 253 251 257 260 261 263 262 259 254 244 243 244 236 231 239 248 244 245 270 291 297 300 306 312 328 341 347 349 352 354 352 349 346 345 348 350 349 347 347 346 344 343 339 335 330 323 313 303 293 286 281 278 277 276 275 274 274 272 266 261 259 258
208 211 212 209 208 210 216 217 213 211 213 222 232 238 245 250 255 265 271 275 274 270 270 267 264 262 263 266 269 268 267 262 255 252 253 255 257 256 248 235 257 257 262 282 284 281 289 308 322 332 339 343 345 346 345 344 344 343 346 348 346 346 346 342 339 337 334 331 327 320 312 303 294 286 279 275 274 274 273 273 273 271 265 259 258
213 214 212 211 211 213 218 222 222 220 220 229 239 247 257 260 263 271 274 275 276 275 276 276 275 274 271 271 270 271 272 269 264 262 262 264 266 266 257 236 230 262 267 265 269 279 291 299 308 319 328 334 336 338 339 341 342 342 342 344 344 344 344 341 337 336 334 330 327 322 317 309 301 293 285 277 273 271 271 270 270 271 270 264 259
214 213 214 215 214 214 220 225 225 226 229 237 245 254 262 263 265 270 272 275 278 277 277 277 279 280 278 275 272 272 274 272 268 263 262 264 263 263 263 250 233 224 257 280 252 254 281 292 296 306 315 323 328 330 334 338 340 339 338 338 339 340 339 337 334 333 331 328 325 322 318 313 306 299 291 282 275 271 269 268 268 268 269 268 262
215 215 217 217 215 218 226 230 229 231 236 242 250 257 261 262 264 269 272 278 281 280 279 280 284 287 286 283 278 275 275 273 270 263 258 260 260 259 261 257 246 236 230 257 273 256 262 280 290 299 308 315 322 325 329 335 336 335 333 332 334 335 335 334 333 330 328 326 324 321 318 315 309 303 296 288 280 274 270 268 267 266 266 267 264
215 217 218 217 217 223 229 232 233 238 242 247 254 258 260 260 263 268 271 276 280 282 282 284 288 291 292 291 286 283 282 278 274 266 257 255 256 256 257 254 250 249 246 239 266 271 261 269 287 297 305 311 316 321 324 330 333 333 331 329 330 331 331 332 332 330 327 324 321 319 316 314 310 305 299 292 285 278 273 270 268 266 264 264 263
217 219 220 219 220 224 228 232 236 243 246 250 256 259 260 260 262 267 270 273 280 285 286 285 287 288 289 292 293 292 291 286 279 269 259 255 255 253 254 253 251 252 252 241 240 277 276 276 287 295 302 308 312 317 322 325 328 330 329 327 327 328 327 328 330 329 327 323 320 317 314 313 310 306 302 296 289 283 276 272 270 267 264 261 259
218 219 220 220 220 222 226 233 240 245 250 254 258 257 256 257 260 264 266 272 280 284 286 284 282 282 286 291 294 294 293 289 283 274 264 257 255 252 250 250 249 250 253 250 246 270 284 287 290 294 299 304 307 313 320 322 324 328 327 325 325 325 325 325 325 325 324 322 320 317 313 311 310 307 303 299 293 287 281 276 271 268 264 260 256
217 218 219 218 219 222 225 233 241 247 252 255 254 253 254 256 258 260 266 275 281 283 282 281 281 282 287 291 292 290 290 288 283 278 270 262 257 254 250 247 248 253 258 257 252 261 283 289 290 291 294 297 299 306 316 320 322 325 323 322 323 322 323 323 321 320 321 320 319 316 312 309 307 305 302 299 295 290 284 279 273 269 265 260 256
214 214 216 217 219 223 227 234 241 247 253 253 251 252 255 256 257 260 270 279 281 280 278 281 283 285 287 288 287 288 289 289 286 283 277 269 262 257 253 249 250 258 263 258 253 257 273 284 288 287 288 291 292 298 310 316 319 320 318 319 321 321 320 320 318 317 317 317 316 314 311 308 304 302 300 298 296 292 286 280 274 270 266 260 256
211 211 213 216 220 225 228 233 241 247 251 252 253 254 254 254 258 266 275 278 277 277 278 282 284 285 286 284 284 288 289 289 291 290 283 276 270 263 259 257 257 261 264 261 256 256 262 274 282 283 283 285 288 294 304 312 316 317 315 314 316 317 317 317 317 316 316 314 313 312 310 306 303 301 299 297 295 293 288 281 274 270 267 261 256
210 210 211 214 220 224 226 232 241 247 251 254 256 256 255 257 263 269 274 275 274 276 279 282 282 282 285 285 284 286 287 289 294 295 290 285 279 273 267 266 266 266 267 266 262 259 258 262 272 280 283 282 284 291 300 307 310 311 310 311 312 313 313 315 315 316 316 314 312 310 308 305 302 299 298 297 294 292 290 284 275 269 266 262 256
213 212 211 213 218 221 225 233 241 248 253 256 258 258 258 260 265 269 272 272 273 275 276 276 276 278 281 285 286 285 284 287 291 295 294 290 285 281 276 275 275 273 272 271 267 262 257 256 264 275 281 282 282 288 297 304 303 302 303 305 307 308 309 312 313 314 315 314 311 309 307 304 301 299 298 297 293 290 288 284 277 268 263 260 257
218 215 212 212 217 220 224 234 242 249 254 256 257 257 258 261 266 269 271 272 273 273 273 272 273 276 280 284 287 286 283 283 286 290 292 291 289 286 284 283 281 277 274 272 270 263 256 255 262 269 276 281 281 283 293 300 297 295 297 296 297 302 306 309 310 312 313 313 311 309 306 302 299 297 297 297 294 290 286 283 278 268 260 257 255
226 221 217 215 216 218 225 235 243 250 253 254 255 255 258 263 267 270 271 274 276 274 272 273 274 276 279 282 285 285 284 283 284 286 288 289 289 287 285 286 283 278 275 272 269 262 255 254 260 266 272 278 280 282 290 294 288 288 295 294 290 295 302 305 307 309 311 311 310 308 305 301 297 295 295 295 293 289 286 284 279 269 259 253 252
236 229 223 221 218 218 226 238 245 250 251 251 253 255 259 265 269 273 277 279 280 277 275 275 276 276 278 280 283 284 285 285 285 285 286 285 283 282 282 283 281 278 275 271 267 261 256 254 257 265 269 272 278 282 283 283 281 283 292 294 289 292 299 302 303 307 310 310 308 306 302 299 295 291 290 289 288 286 283 281 279 272 261 252 249
241 235 232 231 227 225 233 242 247 250 249 249 252 257 262 268 274 278 281 283 282 280 277 277 276 278 279 280 283 284 282 282 281 282 282 279 275 274 276 278 279 277 273 268 265 260 256 253 255 262 266 269 276 278 277 281 285 286 289 290 289 294 301 302 301 305 310 310 307 303 300 297 292 287 284 281 280 280 277 274 274 271 265 256 249
245 240 238 238 235 236 242 247 251 252 250 250 254 261 266 271 276 279 281 283 282 279 278 278 278 281 282 280 281 279 276 276 278 280 280 277 273 271 271 274 277 278 273 267 264 261 257 253 255 260 263 269 276 279 282 287 287 284 285 288 290 296 303 304 302 305 310 311 307 300 297 296 291 283 279 276 274 274 272 269 268 267 264 261 254
263 254 247 244 245 248 250 252 255 255 255 256 259 264 269 272 275 278 279 280 280 279 277 277 279 283 283 280 277 273 271 274 277 278 277 276 275 273 272 276 279 280 277 269 264 263 260 256 255 260 265 270 275 280 285 287 285 283 286 290 294 300 302 300 296 297 304 309 305 296 292 293 290 281 275 272 269 268 268 267 267 264 259 258 256
268 267 259 253 251 251 253 257 259 260 261 263 266 268 270 273 274 275 277 277 277 277 276 276 279 283 282 278 273 270 272 274 274 275 276 275 276 274 274 277 280 282 282 276 270 267 264 263 263 266 271 274 277 281 286 287 286 286 288 291 296 300 297 293 291 292 300 306 301 292 288 288 285 277 272 270 266 264 263 264 265 262 257 254 254
253 262 265 264 259 255 257 260 262 262 264 268 273 274 274 277 277 276 276 276 275 275 274 274 278 280 278 275 271 271 274 272 270 274 278 277 275 274 274 277 281 285 287 283 278 274 273 274 274 274 277 280 280 282 289 291 288 287 289 291 293 294 290 288 291 292 297 301 296 288 285 284 280 274 271 269 264 262 261 260 260 259 255 253 252
239 258 269 272 270 265 264 263 262 264 268 272 277 279 280 281 281 280 279 277 276 275 274 273 277 278 275 272 271 272 271 267 270 278 282 280 278 276 277 280 284 288 290 290 292 292 289 287 283 281 284 287 289 290 294 297 293 288 289 289 289 290 289 290 293 292 294 298 296 284 277 280 280 274 271 269 263 260 259 258 259 257 253 250 249
229 254 267 271 273 273 269 267 265 265 271 276 278 280 285 287 285 282 281 279 277 275 273 274 277 277 275 273 270 269 268 269 275 282 284 283 283 283 285 286 288 291 292 294 297 297 295 293 292 292 294 296 298 299 298 298 294 290 290 290 290 292 292 293 295 292 291 298 297 283 271 277 279 270 268 269 262 258 258 255 254 253 247 243 245
227 248 263 271 278 279 273 271 271 272 276 283 286 286 291 294 292 286 281 278 275 273 272 275 278 278 277 274 270 270 273 276 280 283 284 286 289 292 294 293 293 294 295 297 297 297 297 298 300 303 305 304 305 304 302 301 299 297 296 294 293 295 294 293 297 295 292 295 295 287 274 272 274 268 264 265 261 257 258 255 251 249 245 241 240
233 254 278 290 290 284 276 273 277 285 296 307 306 296 295 298 295 288 281 276 271 270 274 277 280 281 279 275 273 276 280 281 281 282 286 291 295 297 297 299 298 297 299 302 302 303 305 308 310 311 311 310 307 306 306 307 308 306 300 291 292 294 292 292 297 298 294 292 293 292 276 267 270 265 258 263 263 255 253 253 251 248 243 239 237
252 286 303 301 294 285 274 262 256 280 307 316 313 297 289 291 290 284 276 269 266 271 278 280 282 284 281 278 281 283 283 282 282 285 289 295 301 301 301 302 299 297 301 304 306 310 313 315 316 314 312 310 309 308 309 312 314 312 305 298 297 295 291 294 298 300 298 295 299 301 285 268 268 260 250 255 261 255 253 250 246 243 237 232 232